Lafayette, IN

12:01 AM EST on February 24, 2018 (GMT -0500)
Purdue Univ

Weather History for KLAF - February, 2013

Change the Weather History Date:

Saturday, February 23, 2013

  Actual Average Record
Temperature  
Mean Temperature 27 °F 33 °F  
Max Temperature 30 °F 41 °F 66 °F (1984)
Min Temperature 24 °F 25 °F 1 °F (2015)
Degree Days  
Heating Degree Days 38    
Month to date heating degree days 835  
Moisture  
Dew Point 20 °F    
Average Humidity 75    
Maximum Humidity 81    
Minimum Humidity 68    
Precipitation  
Precipitation 0.00 in 0.07 in 1.51 in (1985)
Month to date precipitation 0.94 1.38  
Year to date precipitation 4.61 3.24  
Sea Level Pressure  
Sea Level Pressure 30.00 in    
Wind  
Wind Speed 9 mph (West)    
Max Wind Speed 14 mph    
Max Gust Speed 17 mph    
Visibility 10 miles    
Events      
T = Trace of Precipitation, MM = Missing Value Source: NWS Daily Summary

Daily Weather History Graph

Daily Weather History Graph

Search for Another Location

Airport or City:

Trip Planner

Search our weather history database for the weather conditions in past years. The results will help you decide how hot, cold, wet, or windy it might be!

Date:

Astronomy

Feb. 23, 2013 Rise Set
Actual Time 7:29 AM EST 6:32 PM EST
Civil Twilight 7:02 AM EST 7:00 PM EST
Nautical Twilight 6:30 AM EST 7:32 PM EST
Astronomical Twilight 5:59 AM EST 8:03 PM EST
Moon 4:42 PM EST (2/23) 5:52 AM EST (2/23)
Length of Visible Light 11h 57m
Length of Day
11h 02m
Waxing Gibbous, 95% of the Moon is Illuminated
Feb 23
Waxing Gibbous
Feb 25
Full
Mar 4
Last Quarter
Mar 11
New
Mar 19
First Quarter

Hourly Weather History & Observations

Time (EST) Temp. Windchill Dew Point Humidity Pressure Visibility Wind Dir Wind Speed Gust Speed Precip Events Conditions
12:54 AM 28.0 °F 19.3 °F 21.0 °F 75% 30.00 in 10.0 mi West 9.2 mph - N/A   Overcast
2:54 AM 27.0 °F 17.3 °F 19.9 °F 75% 30.00 in 10.0 mi West 10.4 mph - N/A   Overcast
3:54 AM 26.1 °F 19.4 °F 19.9 °F 78% 29.99 in 10.0 mi West 5.8 mph - N/A   Mostly Cloudy
4:54 AM 26.1 °F 16.8 °F 19.9 °F 78% 29.99 in 10.0 mi West 9.2 mph - N/A   Overcast
5:54 AM 26.1 °F 18.4 °F 19.9 °F 78% 30.00 in 10.0 mi West 6.9 mph - N/A   Overcast
6:54 AM 26.1 °F 17.6 °F 19.9 °F 78% 30.00 in 10.0 mi West 8.1 mph - N/A   Overcast
7:54 AM 25.0 °F 17.1 °F 19.0 °F 78% 30.01 in 10.0 mi West 6.9 mph - N/A   Partly Cloudy
8:54 AM 25.0 °F 17.1 °F 19.0 °F 78% 30.01 in 10.0 mi West 6.9 mph - N/A   Clear
9:54 AM 26.1 °F 16.8 °F 19.0 °F 75% 30.01 in 10.0 mi West 9.2 mph - N/A   Scattered Clouds
10:06 AM 26.6 °F 18.2 °F 19.4 °F 74% 29.99 in 10.0 mi West 8.1 mph - N/A   Mostly Cloudy
10:54 AM 27.0 °F 17.3 °F 19.0 °F 72% 30.01 in 10.0 mi West 10.4 mph - N/A   Overcast
11:54 AM 27.0 °F 17.3 °F 18.0 °F 69% 30.01 in 10.0 mi West 10.4 mph - N/A   Overcast
12:54 PM 28.0 °F 18.6 °F 19.0 °F 69% 30.00 in 10.0 mi West 10.4 mph - N/A   Overcast
1:54 PM 28.9 °F 19.8 °F 19.0 °F 67% 29.97 in 10.0 mi WNW 10.4 mph - N/A   Mostly Cloudy
2:54 PM 28.9 °F 19.2 °F 19.9 °F 69% 29.97 in 10.0 mi West 11.5 mph - N/A   Overcast
3:54 PM 28.9 °F 19.2 °F 21.0 °F 72% 29.97 in 10.0 mi WNW 11.5 mph - N/A   Overcast
4:54 PM 28.0 °F 19.3 °F 19.9 °F 72% 29.97 in 10.0 mi West 9.2 mph - N/A   Overcast
5:54 PM 28.0 °F 18.6 °F 19.9 °F 72% 29.99 in 10.0 mi WNW 10.4 mph - N/A   Overcast
6:54 PM 27.0 °F 16.1 °F 19.9 °F 75% 30.00 in 10.0 mi WNW 12.7 mph - N/A   Overcast
7:54 PM 27.0 °F 18.0 °F 19.0 °F 72% 30.01 in 10.0 mi WNW 9.2 mph - N/A   Overcast
8:54 PM 26.1 °F 19.4 °F 19.9 °F 78% 30.01 in 10.0 mi West 5.8 mph - N/A   Overcast
9:54 PM 26.1 °F 18.4 °F 19.9 °F 78% 30.01 in 10.0 mi WNW 6.9 mph - N/A   Overcast
10:54 PM 26.1 °F 18.4 °F 19.0 °F 75% 30.01 in 10.0 mi West 6.9 mph - N/A   Overcast
11:54 PM 25.0 °F 17.1 °F 19.0 °F 78% 30.01 in 10.0 mi West 6.9 mph - N/A   Overcast